Home > Weather > Charlottetown > Past weeks

Flag for Canada Past Weather in Charlottetown, Prince Edward Island, Canada — Yesterday and Last 2 Weeks

Now
66 °F

Fog.


Feels Like: 66 °F
Forecast: 63 / 77 °F
Wind: 3 mph from North

Location: Charlottetown

Current Time: Jul 30, 2016 at 6:28:09 AM

Latest Report: Jul 30, 2016 at 6:00 AM


Visibility: 1 mi

Pressure: 29.86 "Hg

Humidity: 100%

Dew Point: 66 °F

Location of CharlottetownLocation

Past Weather in Charlottetown — Graph

°F

Charlottetown Temperature Yesterday

Maximum temperature yesterday: 75 °F (at 4:00 PM)
Minimum temperature yesterday: 66 °F (at 2:00 AM)
Average temperature yesterday: 70 °F

High & Low Weather Summary for the Past Weeks

 TemperatureHumidityPressure
High82 °F (Jul 28, 3:00 PM)100% (Jul 15, 7:45 AM)30.18 "Hg (Jul 15, 7:45 AM)
Low54 °F (Jul 20, 6:00 AM)44% (Jul 19, 3:00 PM)29.60 "Hg (Jul 23, 2:00 AM)
Average69 °F79%29.86 "Hg
* Reported Jul 15 5:00 AM — Jul 30 5:00 AM, Charlottetown, Weather by CustomWeather, © 2016

Note: Actual official high and low records may vary slightly from our data, if they occured in-between our weather recording intervals... More about our weather records

Advertising

Charlottetown Weather History for the Previous 24 Hours

Scroll right to see more
 ConditionsComfort  
Time TempWeatherWind HumidityBarometerVisibility
5:00 AM
Sat, Jul 30
64 °FFog.5 mph100%29.85 "Hg4 mi
4:00 AM64 °FPassing clouds.2 mph100%29.84 "Hg12 mi
3:00 AM66 °FOvercast.No wind100%29.86 "Hg12 mi
2:00 AM66 °FOvercast.2 mph94%29.87 "Hg12 mi
1:00 AM68 °FOvercast.3 mph94%29.88 "Hg10 mi
12:00 AM68 °FMostly cloudy.5 mph94%29.88 "Hg12 mi
11:00 PM
Fri, Jul 29
70 °FMostly cloudy.No wind94%29.89 "Hg10 mi
10:00 PM70 °FOvercast.5 mph88%29.90 "Hg15 mi
9:00 PM70 °FSprinkles. Mostly cloudy.7 mph88%29.89 "Hg15 mi
8:00 PM72 °FSprinkles. Mostly cloudy.3 mph83%29.88 "Hg15 mi
7:00 PM73 °FCloudy.7 mph78%29.88 "Hg15 mi
6:00 PM75 °FMostly cloudy.6 mph74%29.88 "Hg15 mi
5:00 PM75 °FBroken clouds.8 mph74%29.89 "Hg15 mi
4:00 PM75 °FBroken clouds.6 mph74%29.89 "Hg15 mi
3:00 PM73 °FPartly sunny.8 mph78%29.89 "Hg15 mi
2:00 PM72 °FOvercast.9 mph83%29.90 "Hg15 mi
1:00 PM70 °FOvercast.5 mph83%29.90 "Hg15 mi
12:00 PM70 °FOvercast.7 mph83%29.91 "Hg15 mi
11:00 AM70 °FOvercast.8 mph83%29.91 "Hg15 mi
10:00 AM68 °FOvercast.9 mph88%29.91 "Hg15 mi
9:53 AM68 °FOvercast.12 mph88%29.91 "Hg15 mi
9:00 AM68 °FMostly cloudy.10 mph88%29.92 "Hg15 mi
8:00 AM68 °FMostly cloudy.8 mph94%29.92 "Hg15 mi
7:00 AM66 °FScattered showers. Cloudy.5 mph94%29.90 "Hg15 mi
6:00 AM68 °FSprinkles. Mostly cloudy.6 mph94%29.89 "Hg15 mi
Weather by CustomWeather, © 2016

See weather overviewHow to use our weather pages